Flag for Cook Islands Weather past 2 weeks in Rarotonga, Cook Islands

68 °F


Feels Like: 68 °F
Forecast: 70 / 76 °F
Wind: 5 mph from Southwest

Location: Rarotonga

Current Time: Oct 7, 2015 at 3:33:55 AM

Latest Report: Oct 7, 2015 at 3:00 AM

Visibility: N/A

Pressure: 29.89 "Hg

Humidity: 88%

Dew point: 64 °F

Location of RarotongaLocation

Historic Weather in Rarotonga — Graph


Rarotonga temperature yesterday

Maximum temperature yesterday: 73 °F (at 12:00 AM)
Minimum temperature yesterday: 68 °F (at 8:00 PM)
Average temperature yesterday: 71 °F

Past Weeks' High & Low Weather Summary

High81 °F (Sep 22, 2:00 PM)94% (Sep 22, 1:00 PM)30.12 "Hg (Sep 22, 1:00 PM)
Low59 °F (Oct 2, 5:00 AM)41% (Sep 28, 3:00 PM)29.74 "Hg (Sep 23, 5:00 AM)
Average71 °F70%29.96 "Hg
* Reported Sep 22 2:00 AM — Oct 7 2:00 AM, Rarotonga, Weather by CustomWeather, © 2015

Note: Actual official high and low records may vary slightly from our data, if they occured in-between our weather recording intervals... More about our weather records


Rarotonga weather history for previous 24 hours

Time TempWeatherWind HumidityBarometerVisibility
2:00 AM
Wed, Oct 7
68 °FSprinkles. Overcast.8 mph88%29.92 "HgN/A
1:00 AM68 °FSprinkles. Overcast.8 mph83%29.92 "HgN/A
12:00 AM68 °FSprinkles. Overcast.8 mph83%29.95 "HgN/A
11:00 PM
Tue, Oct 6
68 °FSprinkles. Overcast.8 mph94%29.95 "HgN/A
10:00 PM68 °FRain showers. Overcast.7 mph94%29.98 "HgN/A
9:00 PM68 °FRain showers. Overcast.7 mph94%29.95 "HgN/A
8:00 PM68 °FRain showers. Overcast.8 mph94%29.95 "HgN/A
7:00 PM70 °FDrizzle. Mostly cloudy.8 mph88%29.95 "HgN/A
6:00 PM70 °FDrizzle. Cloudy.6 mph94%29.92 "HgN/A
5:00 PM70 °FDrizzle. Cloudy.5 mph94%29.92 "HgN/A
4:00 PM70 °FRain. Cloudy.3 mph94%29.92 "HgN/A
3:00 PM70 °FLight rain. Scattered clouds.5 mph94%29.92 "HgN/A
2:00 PM70 °FLight rain. More clouds than sun.10 mph94%29.95 "HgN/A
1:00 PM72 °FLight rain. More clouds than sun.2 mph94%29.98 "HgN/A
12:00 PM72 °FLight rain. Scattered clouds.7 mph88%29.98 "HgN/A
11:00 AM72 °FSprinkles. More clouds than sun.7 mph88%30.01 "HgN/A
10:00 AM72 °FSprinkles. More clouds than sun.6 mph88%30.01 "HgN/A
9:00 AM72 °FDrizzle. Broken clouds.7 mph88%30.01 "HgN/A
8:00 AM73 °FBroken clouds.7 mph74%30.01 "HgN/A
7:00 AM73 °FBroken clouds.6 mph83%29.98 "HgN/A
6:00 AM72 °FPartly cloudy.6 mph88%29.98 "HgN/A
5:00 AM72 °FSprinkles. Partly cloudy.3 mph88%29.98 "HgN/A
4:00 AM73 °FPartly cloudy.7 mph78%29.95 "HgN/A
3:00 AM73 °FPartly cloudy.8 mph78%29.95 "HgN/A
Weather by CustomWeather, © 2015

See weather overviewHow to use our weather pages